Weather History for Joliet, IL

Change the Weather History Date:

Friday, November 25, 2011

  Actual Average (KLOT) Record (KLOT)
Temperature  
Mean Temperature 47 °F 36 °F  
Max Temperature 57 °F 43 °F 60 °F (2006)
Min Temperature 37 °F 28 °F 10 °F (2005)
Degree Days  
Heating Degree Days 18 29  
Month to date heating degree days 579  
Since 1 July heating degree days 1066  
Cooling Degree Days 0 0  
Month to date cooling degree days 0  
Year to date cooling degree days 862  
Moisture  
Dew Point 39 °F    
Average Humidity 75    
Maximum Humidity 87    
Minimum Humidity 63    
Precipitation  
Precipitation 0.00 in 0.12 in 0.37 in (1993)
Month to date precipitation 2.83  
Year to date precipitation 37.19  
Snow  
Snow 0.00 in 0.00 in 0.00 in (2011)
Month to date snowfall 0.5  
Since 1 July snowfall 0.5  
Since 1 September snowfall 0.5  
Snow Depth -    
Sea Level Pressure  
Sea Level Pressure 29.97 in    
Wind  
Wind Speed 11 mph (South)    
Max Wind Speed 17 mph    
Max Gust Speed 28 mph    
Visibility 8 miles    
Events      
T = Trace of Precipitation, MM = Missing Value Source: NWS Daily Summary

Daily Weather History Graph

Daily Weather History Graph

Search for Another Location

Airport:

Trip Planner

Search our weather history database for the weather conditions in past years. The results will help you decide how hot, cold, wet, or windy it might be!

Date:

Astronomy

Nov. 25, 2011 Rise Set
Actual Time 6:52 AM CST 4:26 PM CST
Civil Twilight 6:22 AM CST 4:56 PM CST
Nautical Twilight 5:48 AM CST 5:30 PM CST
Astronomical Twilight 5:15 AM CST 6:03 PM CST
Moon 7:21 AM CST (11/25) 4:52 PM CST (11/25)
Length of Visible Light 10h 34m
Length of Day
9h 33m
New Moon, 0% of the Moon is Illuminated
Nov 25
New Moon
Dec 2
First Quarter
Dec 10
Full
Dec 17
Last Quarter
Dec 24
New

Hourly Weather History & Observations

Time (CST) Temp. Windchill Dew Point Humidity Pressure Visibility Wind Dir Wind Speed Gust Speed Precip Events Conditions
12:15 AM 41.0 °F 34.7 °F 35.6 °F 81% 30.07 in 5.0 mi South 10.4 mph - N/A   Haze
12:35 AM 41.0 °F 34.3 °F 37.4 °F 87% 30.06 in 5.0 mi South 11.5 mph 17.3 mph N/A   Clear
12:55 AM 41.0 °F 33.9 °F 35.6 °F 81% 30.05 in 5.0 mi SSE 12.7 mph 18.4 mph N/A   Haze
1:15 AM 41.0 °F 34.7 °F 35.6 °F 81% 30.06 in 5.0 mi South 10.4 mph 18.4 mph N/A   Haze
1:35 AM 41.0 °F 35.2 °F 35.6 °F 81% 30.05 in 7.0 mi South 9.2 mph - N/A   Clear
1:55 AM 41.0 °F 34.3 °F 35.6 °F 81% 30.05 in 7.0 mi South 11.5 mph - N/A   Clear
2:15 AM 41.0 °F 34.7 °F 35.6 °F 81% 30.05 in 7.0 mi South 10.4 mph - N/A   Clear
2:35 AM 41.0 °F 34.3 °F 35.6 °F 81% 30.04 in 7.0 mi South 11.5 mph 16.1 mph N/A   Clear
2:55 AM 41.0 °F 34.3 °F 35.6 °F 81% 30.03 in 7.0 mi South 11.5 mph - N/A   Clear
3:15 AM 41.0 °F 33.9 °F 35.6 °F 81% 30.03 in 7.0 mi South 12.7 mph 17.3 mph N/A   Clear
3:35 AM 41.0 °F 34.3 °F 35.6 °F 81% 30.03 in 7.0 mi South 11.5 mph - N/A   Clear
3:55 AM 41.0 °F 34.7 °F 35.6 °F 81% 30.03 in 7.0 mi South 10.4 mph 16.1 mph N/A   Clear
4:15 AM 41.0 °F 34.7 °F 33.8 °F 76% 30.03 in 7.0 mi South 10.4 mph - N/A   Clear
4:35 AM 41.0 °F 35.2 °F 33.8 °F 76% 30.03 in 7.0 mi South 9.2 mph 17.3 mph N/A   Clear
4:55 AM 39.2 °F 33.0 °F 33.8 °F 81% 30.04 in 7.0 mi South 9.2 mph - N/A   Clear
5:15 AM 39.2 °F 32.0 °F 33.8 °F 81% 30.03 in 7.0 mi South 11.5 mph - N/A   Clear
5:35 AM 39.2 °F 33.0 °F 33.8 °F 81% 30.03 in 7.0 mi South 9.2 mph - N/A   Clear
5:55 AM 37.4 °F 31.4 °F 33.8 °F 87% 30.04 in 7.0 mi South 8.1 mph - N/A   Clear
6:15 AM 37.4 °F 30.3 °F 33.8 °F 87% 30.02 in 7.0 mi South 10.4 mph - N/A   Clear
6:35 AM 37.4 °F 30.8 °F 33.8 °F 87% 30.02 in 7.0 mi South 9.2 mph - N/A   Clear
6:55 AM 37.4 °F 29.3 °F 33.8 °F 87% 30.01 in 5.0 mi South 12.7 mph 17.3 mph N/A   Haze
7:15 AM 37.4 °F 30.3 °F 33.8 °F 87% 30.01 in 5.0 mi South 10.4 mph 17.3 mph N/A   Haze
7:35 AM 39.2 °F 32.0 °F 33.8 °F 81% 30.02 in 5.0 mi South 11.5 mph 16.1 mph N/A   Haze
7:55 AM 41.0 °F 34.7 °F 35.6 °F 81% 30.01 in 5.0 mi South 10.4 mph - N/A   Haze
8:15 AM 41.0 °F 34.7 °F 35.6 °F 81% 30.01 in 5.0 mi South 10.4 mph - N/A   Haze
8:35 AM 42.8 °F 37.0 °F 35.6 °F 76% 30.01 in 7.0 mi South 10.4 mph 18.4 mph N/A   Clear
8:55 AM 42.8 °F 36.6 °F 37.4 °F 81% 30.00 in 7.0 mi South 11.5 mph 18.4 mph N/A   Clear
9:15 AM 44.6 °F 38.4 °F 37.4 °F 76% 29.99 in 7.0 mi South 12.7 mph 18.4 mph N/A   Clear
9:35 AM 46.4 °F 41.1 °F 41.0 °F 81% 29.99 in 7.0 mi South 11.5 mph 19.6 mph N/A   Clear
9:55 AM 46.4 °F 40.7 °F 41.0 °F 81% 29.99 in 7.0 mi South 12.7 mph 17.3 mph N/A   Clear
10:15 AM 48.2 °F - 41.0 °F 76% 29.99 in 10.0 mi South 17.3 mph 20.7 mph N/A   Clear
10:35 AM 50.0 °F - 41.0 °F 71% 29.98 in 10.0 mi South 9.2 mph 19.6 mph N/A   Clear
10:55 AM 51.8 °F - 42.8 °F 71% 29.97 in 10.0 mi South 11.5 mph 19.6 mph N/A   Clear
11:15 AM 53.6 °F - 42.8 °F 67% 29.96 in 10.0 mi South 15.0 mph 23.0 mph N/A   Clear
11:35 AM 53.6 °F - 42.8 °F 67% 29.94 in 10.0 mi South 17.3 mph 23.0 mph N/A   Clear
11:55 AM 53.6 °F - 42.8 °F 67% 29.94 in 10.0 mi South 15.0 mph 20.7 mph N/A   Clear
12:15 PM 55.4 °F - 42.8 °F 63% 29.92 in 10.0 mi South 11.5 mph 27.6 mph N/A   Clear
12:35 PM 55.4 °F - 44.6 °F 67% 29.92 in 10.0 mi South 6.9 mph 18.4 mph N/A   Clear
12:55 PM 55.4 °F - 44.6 °F 67% 29.91 in 10.0 mi South 10.4 mph 19.6 mph N/A   Clear
1:15 PM 57.2 °F - 44.6 °F 63% 29.90 in 10.0 mi South 13.8 mph 20.7 mph N/A   Clear
1:35 PM 57.2 °F - 44.6 °F 63% 29.89 in 10.0 mi South 16.1 mph 25.3 mph N/A   Clear
1:55 PM 57.2 °F - 44.6 °F 63% 29.90 in 10.0 mi South 15.0 mph 23.0 mph N/A   Clear
2:15 PM 55.4 °F - 44.6 °F 67% 29.89 in 10.0 mi South 15.0 mph 23.0 mph N/A   Clear
2:35 PM 55.4 °F - 44.6 °F 67% 29.89 in 10.0 mi South 12.7 mph 20.7 mph N/A   Clear
2:55 PM 55.4 °F - 44.6 °F 67% 29.89 in 10.0 mi South 12.7 mph 18.4 mph N/A   Clear
3:15 PM 55.4 °F - 44.6 °F 67% 29.89 in 10.0 mi South 13.8 mph - N/A   Clear
3:35 PM 55.4 °F - 44.6 °F 67% 29.88 in 10.0 mi South 13.8 mph 19.6 mph N/A   Clear
3:55 PM 55.4 °F - 44.6 °F 67% 29.89 in 10.0 mi South 6.9 mph 16.1 mph N/A   Clear
4:15 PM 55.4 °F - 44.6 °F 67% 29.89 in 10.0 mi South 12.7 mph 17.3 mph N/A   Clear
4:35 PM 55.4 °F - 44.6 °F 67% 29.88 in 10.0 mi South 10.4 mph 16.1 mph N/A   Clear
4:55 PM 55.4 °F - 44.6 °F 67% 29.88 in 10.0 mi South 12.7 mph 19.6 mph N/A   Clear
5:15 PM 55.4 °F - 44.6 °F 67% 29.89 in 10.0 mi South 11.5 mph - N/A   Clear
5:35 PM 55.4 °F - 44.6 °F 67% 29.89 in 10.0 mi South 12.7 mph 21.9 mph N/A   Clear
5:55 PM 55.4 °F - 44.6 °F 67% 29.89 in 10.0 mi South 10.4 mph - N/A   Clear
6:15 PM 55.4 °F - 44.6 °F 67% 29.89 in 10.0 mi South 13.8 mph 17.3 mph N/A   Clear
6:35 PM 53.6 °F - 44.6 °F 72% 29.89 in 10.0 mi South 13.8 mph 18.4 mph N/A   Clear
6:55 PM 55.4 °F - 44.6 °F 67% 29.89 in 10.0 mi South 11.5 mph 18.4 mph N/A   Clear
7:15 PM 55.4 °F - 44.6 °F 67% 29.90 in 10.0 mi South 11.5 mph 19.6 mph N/A   Clear
7:35 PM 55.4 °F - 44.6 °F 67% 29.90 in 10.0 mi South 15.0 mph 23.0 mph N/A   Clear
7:55 PM 53.6 °F - 42.8 °F 67% 29.90 in 10.0 mi South 15.0 mph 23.0 mph N/A   Clear
8:15 PM 55.4 °F - 44.6 °F 67% 29.90 in 10.0 mi South 10.4 mph 17.3 mph N/A   Clear
8:35 PM 53.6 °F - 42.8 °F 67% 29.90 in 10.0 mi South 13.8 mph 20.7 mph N/A   Clear
8:55 PM 53.6 °F - 42.8 °F 67% 29.90 in 10.0 mi South 16.1 mph 24.2 mph N/A   Clear
9:15 PM 53.6 °F - 42.8 °F 67% 29.90 in 10.0 mi South 13.8 mph 18.4 mph N/A   Clear
9:35 PM 53.6 °F - 42.8 °F 67% 29.91 in 10.0 mi South 13.8 mph 20.7 mph N/A   Clear
9:55 PM 53.6 °F - 42.8 °F 67% 29.90 in 10.0 mi South 12.7 mph 19.6 mph N/A   Clear
10:15 PM 53.6 °F - 42.8 °F 67% 29.90 in 10.0 mi South 11.5 mph 19.6 mph N/A   Clear
10:35 PM 53.6 °F - 42.8 °F 67% 29.91 in 10.0 mi South 11.5 mph 17.3 mph N/A   Clear
10:55 PM 53.6 °F - 44.6 °F 72% 29.91 in 10.0 mi South 11.5 mph 19.6 mph N/A   Clear
11:15 PM 53.6 °F - 42.8 °F 67% 29.91 in 10.0 mi South 13.8 mph 21.9 mph N/A   Clear
11:35 PM 53.6 °F - 42.8 °F 67% 29.91 in 10.0 mi South 13.8 mph 20.7 mph N/A   Clear
11:55 PM 53.6 °F - 42.8 °F 67% 29.91 in 10.0 mi South 11.5 mph 19.6 mph N/A   Clear